Dillon, MT

3:21 PM MST on December 08, 2016 (GMT -0700)
Dillon

Weather History for KDLN - September, 2012

Change the Weather History Date:

Sunday, September 2, 2012

  Actual Average Record
Temperature  
Mean Temperature 63 °F 60 °F  
Max Temperature 78 °F 76 °F 93 °F (1950)
Min Temperature 47 °F 44 °F 25 °F (1974)
Degree Days  
Heating Degree Days 2    
Month to date heating degree days 2  
Since 1 July heating degree days 32  
Cooling Degree Days 0    
Month to date cooling degree days 0  
Year to date cooling degree days 241  
Growing Degree Days 12 (Base 50)    
Moisture  
Dew Point 35 °F    
Average Humidity 49    
Maximum Humidity 86    
Minimum Humidity 11    
Precipitation  
Precipitation 0.00 in 0.03 in 0.71 in (1954)
Month to date precipitation 0.12 0.06  
Year to date precipitation 5.13 8.36  
Snow  
Snow 0.00 in - - ()
Snow Depth 0.00 in    
Sea Level Pressure  
Sea Level Pressure 29.99 in    
Wind  
Wind Speed 10 mph (SSW)    
Max Wind Speed 23 mph    
Max Gust Speed 28 mph    
Visibility 10 miles    
Events      
T = Trace of Precipitation, MM = Missing Value Source: NWS Daily Summary

Daily Weather History Graph

Daily Weather History Graph

Search for Another Location

Airport or City:

Trip Planner

Search our weather history database for the weather conditions in past years. The results will help you decide how hot, cold, wet, or windy it might be!

Date:

Astronomy

Sep. 02, 2012 Rise Set
Actual Time 6:53 AM MDT 8:04 PM MDT
Civil Twilight 6:23 AM MDT 8:34 PM MDT
Nautical Twilight 5:46 AM MDT 9:11 PM MDT
Astronomical Twilight 5:08 AM MDT 9:49 PM MDT
Moon 8:43 PM MDT (9/2) 9:15 AM MDT (9/2)
Length of Visible Light 14h 11m
Length of Day
13h 10m
Waning Gibbous, 95% of the Moon is Illuminated
Sep 2
Waning Gibbous
Sep 8
Last Quarter
Sep 15
New
Sep 22
First Quarter
Sep 29
Full

Hourly Weather History & Observations

Time (MDT) Temp. Dew Point Humidity Pressure Visibility Wind Dir Wind Speed Gust Speed Precip Events Conditions
12:53 AM 55.0 °F 46.0 °F 72% 29.98 in 10.0 mi South 4.6 mph - N/A   Clear
1:53 AM 53.1 °F 46.9 °F 80% 29.99 in 10.0 mi South 5.8 mph - N/A   Overcast
2:53 AM 51.1 °F 46.0 °F 83% 30.01 in 10.0 mi WSW 9.2 mph - N/A   Partly Cloudy
3:53 AM 50.0 °F 46.0 °F 86% 30.04 in 10.0 mi SSW 12.7 mph - N/A   Clear
4:53 AM 51.1 °F 45.0 °F 80% 30.04 in 10.0 mi South 11.5 mph - N/A   Mostly Cloudy
5:53 AM 48.0 °F 44.1 °F 86% 30.06 in 10.0 mi SSW 10.4 mph - N/A   Clear
6:53 AM 48.0 °F 44.1 °F 86% 30.06 in 10.0 mi South 11.5 mph - N/A   Partly Cloudy
7:53 AM 48.0 °F 44.1 °F 86% 30.09 in 10.0 mi SSW 12.7 mph - N/A   Mostly Cloudy
8:53 AM 52.0 °F 45.0 °F 77% 30.08 in 10.0 mi SSW 12.7 mph - N/A   Clear
9:53 AM 55.9 °F 45.0 °F 67% 30.07 in 10.0 mi SSW 11.5 mph - N/A   Clear
10:53 AM 62.1 °F 44.1 °F 52% 30.06 in 9.0 mi SW 10.4 mph - N/A   Clear
11:53 AM 66.9 °F 37.0 °F 33% 30.03 in 10.0 mi SSW 9.2 mph - N/A   Clear
12:53 PM 72.0 °F 27.0 °F 19% 29.99 in 9.0 mi SW 15.0 mph 18.4 mph N/A   Clear
1:53 PM 73.0 °F 25.0 °F 17% 29.97 in 10.0 mi SSW 18.4 mph 25.3 mph N/A   Clear
2:53 PM 75.9 °F 23.0 °F 14% 29.94 in 10.0 mi SSW 17.3 mph 27.6 mph N/A   Clear
3:53 PM 77.0 °F 19.9 °F 12% 29.92 in 10.0 mi WSW 17.3 mph 24.2 mph N/A   Clear
4:53 PM 77.0 °F 19.9 °F 12% 29.91 in 10.0 mi SW 13.8 mph 23.0 mph N/A   Clear
5:53 PM 75.0 °F 19.9 °F 13% 29.91 in 10.0 mi SW 11.5 mph - N/A   Clear
6:53 PM 71.1 °F 26.1 °F 19% 29.90 in 10.0 mi SSW 6.9 mph - N/A   Clear
7:53 PM 66.9 °F 28.0 °F 23% 29.91 in 10.0 mi South 4.6 mph - N/A   Clear
8:53 PM 62.1 °F 28.0 °F 28% 29.93 in 10.0 mi SSW 4.6 mph - N/A   Clear
9:53 PM 57.0 °F 32.0 °F 39% 29.96 in 10.0 mi Calm Calm - N/A   Clear
10:53 PM 57.9 °F 28.0 °F 32% 29.97 in 10.0 mi South 5.8 mph - N/A   Overcast
11:53 PM 52.0 °F 32.0 °F 47% 29.99 in 10.0 mi SE 5.8 mph - N/A   Overcast